User: anonymous
Location: Unspecified
(0.0000°N, 0.0000°E)
Time: 15:09:20
(UTC+02:00)
Language:

Ariane H10 - Orbit

View from above orbital plane
View from above orbital plane
View from above satellite
View from above satellite

Ground track
Ground track

The orbit data is extracted from the following two-line orbital elements,

1 21727U 91067B   14209.81733387 -.00000092  00000-0 -88513-4 0  2588
2 21727 004.4556 040.7443 7185013 017.5833 145.8359 02.31394621153497
Epoch (UTC): 28 July 2014 19:36:57
Eccentricity: 0.7185013
inclination: 4.4556°
perigee height: 419 km
apogee height: 35115 km
right ascension of ascending node: 40.7443°
argument of perigee: 17.5833°
revolutions per day: 2.31394621
mean anomaly at epoch: 145.8359°
orbit number at epoch: 15349

The dashed part of the orbit path shows where the satellite is in the earth's shadow,  

DLR